Probability
0 1 7 19 28 31 26 19 14 8 4 3 3 4 6 6 7 10 13 12 6 1 0 0 0 0 0 0 0 0 0 0 0 0 0 0 0 0 0 0 0 0 0
1 1 8 20 27 26 20 13 9 6 4 3 1 2 4 5 5 8 10 7 3 0 0 0 0 0 0 0 0 0 0 0 0 0 0 0 0 0 0 0 0 0 0
2 1 7 18 22 17 11 6 4 3 2 1 0 0 1 2 2 3 4 2 0 0 0 0 0 0 0 0 0 0 0 0 0 0 0 0 0 0 0 0 0 0 0
2 1 5 14 17 11 6 3 2 1 1 0 0 0 0 0 0 0 0 0 0 0 0 0 0 0 0 0 0 0 0 0 0 0 0 0 0 0 0 0 0 0 0
2 2 5 10 11 8 4 2 1 0 0 0 0 0 0 0 0 0 0 0 0 0 0 0 0 0 0 0 0 0 0 0 0 0 0 0 0 0 1 0 0 0 0
3 3 4 6 6 4 2 1 0 0 0 0 0 0 0 0 0 0 0 0 0 0 0 0 0 0 0 0 0 0 0 0 0 0 0 0 0 1 1 0 0 0 0
3 3 4 3 2 1 1 0 0 0 0 0 0 0 0 0 0 0 0 0 0 0 0 0 0 0 0 0 0 0 0 0 0 0 0 0 1 1 1 0 0 0 0
2 2 2 2 1 0 0 0 0 0 0 0 0 0 0 0 0 0 0 0 0 0 0 0 0 0 0 0 0 0 0 0 0 0 0 0 1 1 1 0 0 0 0
1 1 0 0 0 0 0 0 0 0 0 0 0 0 0 0 0 0 0 0 0 0 0 0 0 0 0 0 0 0 0 0 0 0 0 0 0 0 0 0 0 0 0
0 0 0 0 0 0 0 0 0 0 0 0 0 0 0 0 0 0 0 0 0 0 0 0 0 0 0 0 0 0 0 0 0 0 0 0 0 0 0 0 0 0 0
0 0 0 0 0 0 0 0 0 0 0 0 0 0 0 0 0 0 0 0 0 0 0 0 0 1 1 1 1 0 0 0 0 0 0 1 0 0 0 0 0 0 0
0 0 0 0 0 0 0 0 0 0 0 0 0 0 0 0 0 0 0 0 0 0 0 0 0 1 2 1 1 0 0 0 0 0 1 2 1 1 2 2 1 0 0
1 0 0 0 0 0 0 0 0 0 0 0 0 0 0 0 0 0 0 0 0 0 0 0 0 1 1 1 0 0 0 0 0 0 1 2 2 2 3 3 3 2 3
2 1 0 0 0 0 0 0 0 0 0 0 0 0 0 0 0 0 0 0 0 0 0 0 0 0 0 0 0 0 0 0 0 0 2 4 6 5 4 4 5 7 9
4 2 0 0 0 0 0 0 0 0 0 0 0 0 0 0 0 0 1 0 0 0 0 0 0 0 0 0 0 0 0 0 0 0 3 8 12 13 12 9 9 11 12
8 5 2 0 0 0 0 0 0 0 0 0 0 0 0 0 0 1 1 0 0 0 0 0 0 0 0 0 0 0 0 0 0 0 3 8 14 18 20 18 16 15 14
16 12 6 2 1 0 1 1 0 0 0 0 0 0 1 1 2 2 1 0 0 0 0 0 0 0 0 0 0 0 0 0 0 0 1 4 8 13 16 18 17 15 14
29 25 21 18 16 15 12 7 5 4 4 3 3 4 5 5 4 3 1 0 0 0 0 0 0 0 0 0 0 0 0 0 0 0 0 1 2 3 6 9 10 10 10
41 41 42 45 48 47 41 32 26 22 18 15 12 12 11 10 6 3 1 0 0 0 0 0 0 0 0 0 0 0 0 0 0 0 0 0 0 0 0 2 4 5 4
49 51 56 66 74 75 72 65 58 48 38 29 25 20 17 14 10 5 2 0 0 0 0 0 0 0 0 0 0 0 0 0 0 0 0 0 0 0 0 0 1 1 1
51 53 60 71 81 87 85 79 71 58 43 31 24 20 16 14 11 8 5 2 0 0 0 0 0 0 0 0 0 0 0 0 0 0 0 0 0 0 0 0 0 0 0
50 55 63 73 83 87 84 74 61 46 32 20 13 10 8 7 7 7 6 3 0 0 0 0 0 0 0 0 0 0 0 0 0 0 0 0 0 0 0 0 0 0 0
55 59 68 76 82 83 77 66 51 37 24 13 6 2 1 2 3 4 3 1 0 0 0 0 0 0 0 0 0 0 0 0 0 0 0 0 0 0 0 0 0 0 0
63 66 73 79 80 77 71 62 50 37 23 10 3 0 0 0 1 1 1 0 0 0 0 0 0 0 0 0 0 0 0 0 0 0 0 0 0 0 0 0 0 0 0
67 70 75 77 75 70 65 57 46 31 16 5 1 0 0 0 0 0 0 0 0 0 0 0 0 0 0 0 0 0 0 0 0 0 0 0 0 0 0 0 0 0 0
68 70 73 74 71 65 59 51 38 24 10 2 0 0 0 0 0 0 0 0 0 0 0 0 0 0 0 0 0 0 0 0 0 0 0 0 0 0 0 0 0 0 0
Wind_Speed
9 10 16 17 18 18 18 18 17 17 17 17 17 17 17 17 17 17 16 16 15 15 14 14 13 13 13 13 14 14 14 13 13 14 14 13 13 13 15 15 13 10 14
13 12 17 18 18 18 18 18 17 16 16 16 16 16 16 16 16 16 15 15 14 14 13 13 12 12 12 12 12 12 12 11 11 12 12 12 13 14 14 15 13 9 13
16 12 15 18 19 19 19 18 17 16 16 15 15 15 15 15 15 15 14 14 13 13 12 11 11 10 10 10 10 10 10 10 10 10 9 5 8 14 15 14 14 13 12
17 11 13 18 18 19 19 18 17 17 16 15 15 14 14 14 14 14 14 13 12 11 11 10 9 9 8 8 9 9 8 9 8 7 4 3 5 12 13 13 12 12 11
14 10 14 19 19 19 19 18 17 17 16 16 15 15 14 14 13 13 13 13 11 10 9 9 8 7 6 6 7 7 8 7 7 5 3 3 4 10 12 12 12 11 11
13 11 14 19 19 18 18 18 18 17 16 16 15 15 14 14 13 13 13 12 11 9 8 7 6 5 4 4 5 6 7 7 6 3 3 4 3 9 11 11 11 10 9
13 9 12 17 18 18 18 18 17 17 16 15 15 15 14 13 12 12 12 11 10 9 8 7 5 4 3 2 4 5 6 6 5 3 3 4 4 9 10 10 10 10 9
16 11 11 17 19 18 18 18 17 16 16 15 15 15 14 13 12 12 11 11 10 9 8 6 5 4 2 1 2 3 5 5 6 5 5 4 5 8 10 10 10 9 8
15 12 9 10 14 17 17 17 17 16 16 16 15 15 14 14 13 12 11 10 9 8 8 7 5 5 3 2 1 1 3 5 5 4 6 4 6 8 10 9 10 9 8
13 12 11 9 8 9 11 16 17 16 16 16 16 16 15 15 14 13 11 10 10 9 9 8 7 6 5 4 2 1 3 5 4 5 4 5 10 10 11 10 9 9 8
12 10 11 10 9 8 9 13 14 16 15 15 14 16 13 7 7 8 10 11 11 11 10 9 7 6 6 4 3 2 3 3 4 4 3 8 10 11 11 9 9 8 7
14 12 10 11 11 10 9 8 6 7 8 7 7 8 6 5 5 8 10 13 13 11 10 9 8 6 5 2 2 1 2 5 4 4 4 10 10 11 10 9 8 7 7
17 15 13 12 12 10 7 7 5 4 5 6 7 7 6 5 4 4 3 6 7 8 5 4 4 2 2 2 1 2 4 4 3 3 5 11 10 11 10 9 8 7 6
16 17 15 14 12 10 9 8 7 5 5 5 7 8 6 4 4 4 4 4 4 3 3 2 2 2 2 2 1 3 5 4 4 3 4 10 9 10 10 9 7 6 6
15 16 17 16 15 12 10 8 9 7 7 7 7 7 7 5 5 5 5 4 4 3 3 2 2 2 1 1 3 5 6 6 6 4 3 9 8 8 9 8 7 6 6
15 15 16 17 16 13 11 9 8 8 7 7 6 8 8 6 5 5 4 4 3 3 2 2 2 1 2 3 4 5 6 5 5 4 3 5 9 9 9 8 7 7 6
14 14 15 17 16 15 13 12 9 8 8 7 7 8 7 6 6 5 4 3 3 2 3 2 2 2 3 4 5 5 5 4 5 5 4 3 4 7 9 9 8 7 6
12 13 16 16 16 14 12 10 7 7 7 6 6 6 7 7 7 5 4 4 3 3 3 3 3 3 3 3 3 3 3 3 4 5 4 4 3 3 5 8 8 7 7
12 12 14 13 14 13 11 8 6 5 6 5 5 4 5 5 6 5 4 3 4 3 3 3 3 3 3 3 3 2 2 2 2 4 4 4 4 4 3 6 8 7 7
10 10 11 11 12 11 9 7 5 5 4 4 4 4 5 4 5 5 4 4 4 4 3 3 4 4 3 2 2 2 1 1 1 2 3 3 3 4 3 3 3 3 6
8 9 11 12 13 11 9 8 6 5 5 5 5 6 6 6 6 5 4 4 4 4 4 4 3 4 3 2 2 2 2 2 1 1 2 2 1 2 3 3 3 2 2
11 11 10 11 12 10 6 5 5 6 5 5 5 7 7 7 6 5 5 4 4 4 5 4 3 3 2 2 2 2 1 3 3 2 2 1 1 1 1 1 2 3 3
8 9 8 8 9 8 9 8 8 7 5 4 5 5 6 7 7 6 6 5 5 4 4 3 3 4 2 2 2 2 2 2 1 3 2 2 2 2 2 2 1 2 3
6 6 7 8 9 10 11 11 11 8 6 5 5 6 7 7 7 7 7 6 6 5 5 4 4 3 3 2 2 2 2 2 2 1 3 3 3 3 3 3 3 3 2
5 7 8 10 9 9 10 12 11 9 8 7 8 9 7 7 7 7 7 6 6 5 6 6 5 5 3 3 2 2 3 3 3 2 1 3 3 2 3 3 3 4 4
9 8 9 11 10 9 9 9 11 13 12 11 9 9 7 5 6 7 7 7 6 6 6 6 6 7 5 5 4 4 3 3 2 2 1 1 2 3 3 3 4 4 4
Wind_Direction
155 158 150 142 135 129 123 119 115 112 109 107 105 104 104 104 103 102 100 97 95 92 89 86 84 82 81 81 81 82 84 87 91 94 94 90 86 93 103 96 94 89 92
150 153 148 143 138 133 129 126 122 119 115 111 109 107 106 105 104 103 101 99 97 94 90 86 83 80 78 78 77 77 78 80 84 87 86 84 84 89 104 99 99 98 96
141 147 146 143 140 137 134 132 129 125 121 117 113 110 109 108 106 105 104 102 100 97 93 89 84 79 76 75 74 73 70 70 73 79 77 70 86 93 99 101 100 97 96
140 143 145 143 141 140 138 136 134 131 128 124 120 117 115 113 111 110 109 107 105 102 98 94 89 83 78 74 72 69 64 64 68 76 80 84 92 102 104 105 103 100 97
137 140 146 144 143 143 142 141 139 137 135 131 128 125 122 120 118 117 116 115 113 110 107 103 98 92 84 77 71 67 66 69 71 77 92 104 103 113 110 109 106 104 101
137 142 146 145 145 145 146 146 144 143 141 138 135 131 129 126 124 124 124 124 124 122 120 117 113 109 100 88 78 73 74 75 83 103 122 121 119 122 117 115 113 110 105
138 141 145 144 146 147 148 149 149 147 145 142 139 137 134 132 132 132 134 136 136 137 136 136 136 137 132 109 87 82 86 90 107 123 136 122 125 130 127 124 123 121 116
142 142 144 147 149 150 151 151 150 149 147 145 143 142 140 140 140 141 143 146 149 151 152 156 164 177 189 180 100 91 101 107 114 126 123 121 138 138 138 137 135 133 130
143 143 144 149 151 152 151 151 151 151 149 148 148 147 147 148 149 150 152 155 159 162 167 177 192 210 226 241 245 103 122 130 130 142 145 149 158 154 150 149 147 144 144
146 148 148 147 147 147 150 154 154 153 152 153 153 154 155 156 158 160 161 165 169 175 183 195 209 225 242 256 265 219 146 136 150 152 150 166 166 165 161 158 154 152 152
153 155 153 152 151 148 150 158 157 157 158 157 160 162 159 160 161 166 173 177 181 187 195 206 219 236 254 268 276 241 151 147 155 149 159 170 167 167 163 160 157 157 157
164 166 161 159 158 157 160 152 156 160 161 160 163 164 162 165 175 179 187 188 190 195 204 214 229 248 266 277 284 243 148 152 154 156 171 171 169 166 161 160 162 162 162
169 169 168 167 165 167 158 157 164 161 163 166 170 171 170 172 182 188 184 194 196 199 204 221 236 251 269 274 264 151 157 158 155 163 174 173 169 166 163 162 164 163 162
171 174 171 171 171 174 164 169 171 170 174 179 183 181 176 177 182 182 182 185 191 192 192 207 219 238 262 289 223 144 144 145 147 149 169 170 169 167 164 161 159 155 152
176 177 175 175 176 176 169 177 178 179 182 187 187 188 184 180 180 179 181 182 190 189 192 196 212 220 188 80 92 111 126 137 139 140 154 161 156 155 156 152 149 146 139
178 182 179 179 180 177 177 182 181 183 183 186 189 191 187 180 174 175 174 174 186 187 185 174 177 153 110 97 95 105 114 124 129 131 131 147 147 144 143 143 141 138 130
181 183 184 182 181 179 180 184 181 183 180 185 190 188 183 176 171 166 158 159 167 155 142 121 110 101 98 92 91 98 105 115 130 132 129 117 127 136 135 131 129 126 124
181 182 186 185 182 181 179 181 177 177 176 180 178 175 176 172 162 150 147 150 143 124 116 114 106 91 82 93 97 98 100 107 119 133 138 136 132 134 140 143 141 139 137
185 183 185 182 177 176 168 161 153 152 159 162 156 156 159 152 143 136 136 132 125 110 101 111 94 99 99 101 109 94 92 106 116 132 142 153 157 159 161 162 159 159 158
182 182 185 175 169 162 152 138 124 115 118 117 123 126 124 118 118 114 110 108 108 105 99 98 93 77 85 96 90 69 46 68 104 125 142 146 160 168 170 166 165 184 189
176 185 187 173 168 161 159 152 137 126 114 101 93 94 96 97 100 102 104 98 100 107 112 108 97 83 59 41 70 28 3 21 48 98 110 113 138 159 168 177 187 200 215
187 189 188 176 169 165 156 133 113 110 96 87 87 76 75 84 86 94 95 92 91 100 98 94 102 102 66 38 98 96 6 351 358 16 54 88 64 59 144 195 208 214 220
178 180 182 172 161 145 125 115 109 98 91 86 85 79 70 77 77 82 87 89 83 89 96 88 92 112 119 53 55 137 153 213 314 347 21 43 36 33 4 342 315 273 245
161 157 151 143 140 140 139 138 138 136 131 116 105 94 80 75 79 80 83 84 82 81 85 79 74 92 118 113 57 48 92 130 130 344 345 7 26 36 11 357 353 340 333
113 132 135 128 127 132 137 139 133 126 120 120 113 104 92 78 74 79 84 86 84 82 82 77 73 71 76 91 90 77 67 58 65 117 335 342 355 1 6 8 13 12 15
75 91 108 110 106 108 111 120 126 128 126 121 114 108 98 89 79 79 83 83 83 83 80 77 76 76 75 74 67 62 75 78 59 83 108 319 327 320 348 23 33 21 24